Theta_e
352 352 352 353 354 353 353 353 353 353 352 351 350 349 349 349 347 347 347 341 342 344 345 346 347 348 348 350 349 348 348 349 350 351 350 350 350 350 349 348 347 348 348 347 347 346 346 345 346 348 352 349 350 351 351 348 349 349 350 349 346 344 341 338 336 340 346 350 347 345 344 341 339 340 338 338 337 337 338 336 335 334 333 334 335
354 355 354 354 354 354 354 353 353 352 351 350 350 349 349 348 348 348 346 345 340 340 342 343 344 343 344 346 347 348 348 348 349 350 350 349 349 351 350 348 346 345 345 346 347 348 346 345 347 353 354 350 350 350 348 347 347 348 348 349 347 345 344 340 340 342 339 346 343 342 340 341 336 339 336 334 334 335 332 332 331 331 330 331 332
354 353 354 354 354 355 354 353 352 352 351 350 350 350 349 348 349 348 347 346 345 340 339 341 342 342 343 344 345 346 346 347 348 349 349 349 348 348 350 348 347 346 344 344 345 347 347 347 347 350 355 348 350 349 350 348 350 349 348 349 350 348 347 344 343 341 342 342 341 338 338 337 336 335 335 334 334 332 330 329 328 329 330 329 329
352 352 353 354 354 353 352 352 351 351 350 350 350 350 350 349 349 347 347 347 346 344 340 338 339 341 342 343 344 345 345 345 346 347 347 348 348 348 348 348 348 347 346 346 346 347 347 348 349 352 353 349 347 345 347 346 346 347 347 350 351 350 348 345 346 344 344 338 337 337 337 335 333 334 334 332 330 330 329 328 328 327 327 328 328
352 353 354 353 353 352 351 351 350 350 350 350 350 352 352 351 351 349 346 344 344 343 343 341 338 338 341 343 344 344 345 344 344 345 346 346 347 347 348 348 347 347 346 347 354 349 350 349 350 352 350 348 346 345 346 344 345 346 345 347 349 350 349 346 345 345 343 338 337 338 337 335 333 332 332 327 327 328 328 326 325 325 324 325 326
352 350 350 351 350 350 351 350 350 350 350 350 351 352 352 350 347 348 347 345 344 344 343 342 342 339 338 341 344 345 345 345 344 344 345 345 346 347 348 347 347 347 346 345 347 351 350 350 351 352 351 348 347 346 346 344 344 344 344 345 346 348 346 345 346 344 342 338 336 334 334 330 329 329 329 327 325 323 322 323 323 323 322 320 322
347 348 348 348 348 349 350 349 349 350 350 351 351 351 351 350 349 346 347 346 346 345 345 343 345 342 340 339 341 344 344 344 344 343 344 344 345 345 346 346 347 346 346 345 346 349 351 351 352 353 352 351 349 348 346 345 345 343 345 344 345 345 344 344 345 343 341 337 336 335 333 331 329 327 328 329 326 324 320 319 318 320 320 319 317
344 343 344 347 347 347 348 348 348 349 350 350 350 350 350 349 349 348 348 346 347 348 346 345 344 345 343 343 343 342 341 342 343 343 343 342 343 344 345 346 346 345 345 346 347 348 351 352 352 354 354 353 351 350 348 345 346 344 344 344 344 343 342 343 343 342 341 338 335 333 332 329 329 331 329 326 323 323 322 319 316 316 317 317 315
343 342 345 349 348 347 347 347 348 350 351 349 349 349 348 347 348 347 348 347 347 346 347 347 345 344 344 343 343 344 343 341 343 343 342 342 342 342 343 345 346 345 344 344 346 350 352 353 354 354 357 362 363 360 357 355 347 345 344 344 344 343 341 341 343 342 340 339 337 335 332 329 329 327 325 323 321 319 321 320 317 318 317 315 314
343 345 349 350 351 351 352 351 348 348 348 348 348 348 348 348 349 347 347 346 345 346 346 347 346 345 344 343 343 344 344 345 351 353 352 346 344 343 343 343 345 345 345 344 344 347 352 354 356 365 365 367 368 367 364 362 359 351 346 344 345 342 340 340 341 341 340 339 338 335 331 329 328 327 325 324 324 323 321 319 316 317 316 315 314
350 351 350 349 350 351 350 346 345 345 345 346 348 348 347 348 348 348 348 346 345 345 346 345 345 345 344 343 342 343 344 346 353 345 344 350 350 344 344 343 343 344 345 345 344 346 349 352 353 361 366 368 366 368 368 365 363 360 358 355 353 344 340 340 341 342 340 339 339 337 334 331 330 329 328 326 325 322 320 319 318 316 314 311 308
351 349 349 349 349 350 350 346 342 342 343 344 345 346 348 348 347 347 346 348 348 347 346 345 345 344 345 343 342 343 343 350 340 340 342 341 352 349 344 343 345 344 343 343 344 346 347 349 352 354 358 359 359 361 367 368 364 362 361 359 357 355 351 346 343 342 341 339 338 338 336 333 332 330 328 327 325 323 322 321 318 315 313 312 310
350 349 349 351 350 350 350 349 345 342 342 343 343 344 345 347 345 344 344 345 348 348 347 346 345 345 344 343 343 343 343 347 336 336 336 336 338 351 348 345 343 344 344 344 344 345 346 348 349 353 356 364 363 358 359 363 366 363 361 359 357 356 344 346 352 348 345 342 340 339 338 337 334 332 331 329 328 323 323 321 318 316 315 314 312
348 348 347 348 348 350 351 350 350 347 344 345 345 344 342 344 344 343 344 345 345 347 350 350 351 352 352 350 347 345 344 350 339 334 332 332 334 340 345 346 346 345 345 345 346 347 347 347 347 350 353 357 359 358 357 358 360 359 357 356 353 356 356 351 353 356 353 345 342 340 341 340 337 336 335 331 327 324 323 321 320 317 317 316 317
345 345 345 344 344 344 346 348 347 343 341 344 344 343 344 345 345 345 344 344 343 343 344 345 347 350 350 350 349 351 354 348 338 335 331 329 330 337 338 341 343 344 347 348 348 348 348 349 348 349 351 354 357 357 355 355 356 357 356 353 352 351 352 349 349 350 351 348 345 344 344 343 341 340 337 334 330 328 326 325 323 321 321 322 320
345 344 345 344 344 344 345 344 345 341 340 339 340 341 341 342 342 343 343 342 342 342 342 343 345 347 348 349 349 349 351 342 337 335 332 330 334 342 339 338 339 340 343 345 347 349 350 350 349 348 349 350 353 347 352 355 354 354 354 352 351 350 350 351 343 345 351 351 348 346 345 345 340 342 339 336 333 331 332 330 327 324 321 318 317
344 344 346 345 344 344 344 345 344 344 342 339 339 339 337 337 338 341 340 340 340 340 341 342 344 346 346 346 346 347 348 343 334 331 331 330 337 340 341 340 340 339 341 343 346 347 348 349 349 350 347 344 342 333 337 348 352 351 351 350 350 349 348 350 340 336 337 336 335 336 335 333 332 330 329 330 334 332 329 326 324 323 320 316 317
347 346 347 347 346 345 345 344 343 343 341 339 338 337 337 338 339 343 340 339 339 340 341 342 342 345 345 345 346 346 346 347 337 331 328 328 339 343 340 339 339 337 339 342 344 347 351 356 356 349 343 343 336 332 333 343 347 345 347 347 347 347 347 346 342 341 333 331 330 330 330 330 330 328 329 328 328 335 328 324 325 323 320 319 315
347 348 348 349 348 346 345 343 341 340 338 337 336 336 336 337 338 340 342 340 341 340 343 343 341 340 342 344 351 350 348 347 335 329 327 325 333 342 340 339 338 338 339 342 344 345 346 352 355 351 347 344 332 331 331 339 348 347 347 346 346 345 346 345 339 337 336 335 336 336 337 334 334 334 335 333 336 338 332 329 327 323 321 319 318
348 348 346 346 346 346 344 345 342 340 337 336 336 336 337 338 337 340 341 342 342 341 341 341 339 341 342 343 345 346 345 346 345 331 325 322 325 342 342 340 338 339 341 342 342 342 343 344 348 341 334 332 328 327 326 326 346 351 349 342 345 343 347 343 340 339 337 337 337 338 339 338 337 337 336 335 337 337 333 332 328 326 323 321 319
345 344 343 342 342 341 341 341 341 339 339 338 339 340 339 338 338 341 341 341 340 340 340 340 341 341 342 342 343 343 345 345 345 331 324 321 321 332 340 341 341 341 341 341 341 341 341 342 343 338 326 325 324 322 321 321 330 349 350 342 343 346 343 338 339 341 335 334 335 334 333 334 336 336 336 335 335 336 334 332 330 329 325 322 318
343 342 341 340 339 339 339 340 342 342 340 340 337 334 336 336 335 335 334 334 334 334 334 337 339 338 339 341 342 342 347 349 345 336 327 321 318 319 338 341 342 341 340 339 339 339 340 341 341 337 326 321 320 318 318 318 320 334 343 332 333 333 336 338 336 337 334 331 329 328 328 330 332 333 333 334 334 335 334 331 329 329 327 325 321
341 340 339 338 340 339 340 343 342 341 339 338 333 332 333 334 333 333 332 331 331 330 330 331 331 332 333 335 338 341 341 341 341 340 323 315 318 315 317 331 330 339 340 340 339 339 339 339 341 338 324 318 314 314 316 316 320 323 320 323 326 327 333 333 332 331 329 328 326 326 325 326 327 328 329 329 326 325 323 323 324 324 325 323 323
340 342 344 340 340 339 339 342 338 338 341 338 335 332 331 331 332 332 330 331 329 329 328 331 331 332 333 334 335 338 338 335 335 335 327 316 312 315 314 314 318 332 337 339 340 339 339 339 333 314 311 308 309 311 313 317 322 316 315 319 322 326 332 332 329 328 328 326 325 325 323 322 324 324 324 322 321 320 320 321 320 320 319 320 322
340 340 338 339 339 339 339 337 337 337 338 339 336 334 332 332 331 328 332 329 327 326 327 329 328 330 331 333 334 336 336 331 329 332 330 324 316 315 316 316 317 315 324 329 331 328 320 311 309 311 314 313 313 316 316 315 312 314 314 317 327 328 331 331 329 327 326 325 324 323 321 320 319 319 319 319 321 321 320 320 320 320 320 319 320
339 337 338 338 337 340 338 338 337 336 337 338 337 334 333 334 331 327 325 325 323 325 326 326 324 324 323 324 328 333 335 333 329 328 331 328 323 315 314 318 323 320 321 318 315 313 311 311 313 313 319 321 324 326 326 326 321 319 318 322 326 330 330 330 328 327 326 325 323 320 317 316 317 318 319 318 317 317 317 317 316 316 317 317 317
342 338 336 336 336 335 335 333 333 334 332 331 329 330 330 332 330 326 324 322 322 324 323 324 322 320 321 322 321 325 329 330 332 331 326 324 323 323 321 320 320 320 321 321 321 321 321 319 315 313 314 317 323 323 324 325 325 325 324 325 326 329 330 326 326 326 327 323 320 316 315 316 318 318 316 315 315 315 317 318 315 315 316 316 315
337 336 336 336 337 335 334 345 339 328 325 322 323 324 326 325 322 321 319 319 318 319 319 322 319 319 317 319 319 320 324 323 323 322 326 327 325 323 324 322 318 318 318 320 320 322 320 320 318 321 321 320 319 319 319 320 320 321 320 321 322 325 327 326 323 317 316 316 315 315 315 315 314 313 314 314 314 315 316 316 315 314 315 314 312
338 336 336 336 334 341 337 335 333 326 320 316 312 312 315 320 319 316 315 314 316 318 318 319 319 316 316 318 317 318 321 322 324 313 316 311 319 323 321 319 318 319 319 314 320 320 319 318 319 318 318 318 317 316 317 317 317 317 318 317 317 316 316 316 314 313 314 313 312 312 312 312 312 313 313 313 313 313 315 314 314 313 313 313 312
337 335 336 336 336 334 334 331 328 325 321 318 317 314 311 303 307 318 316 313 307 303 306 317 315 313 315 318 317 317 319 321 308 300 298 300 306 307 308 307 310 317 316 315 319 316 316 315 315 316 316 316 316 315 315 315 315 315 316 316 316 315 315 314 313 313 314 313 313 313 312 312 312 312 312 312 313 313 313 313 311 312 310 309 309
333 331 331 333 337 337 334 330 327 324 323 320 319 317 314 311 299 304 311 310 303 295 295 297 300 307 314 316 313 307 308 304 299 298 298 298 297 298 299 301 304 305 308 317 317 315 314 313 313 314 315 315 314 314 316 315 315 315 314 315 315 315 315 314 313 314 315 314 314 313 312 311 310 310 310 311 311 311 312 313 313 312 310 310 309
332 332 331 333 336 338 333 333 330 327 325 323 322 321 319 315 311 300 301 304 300 296 294 294 294 297 301 305 315 313 304 299 298 298 298 298 297 297 299 301 302 302 303 310 316 314 314 313 313 313 314 314 314 315 314 314 314 314 314 314 314 315 314 314 314 314 313 313 312 311 311 310 310 310 310 310 311 310 311 311 311 311 310 310 310
334 333 332 334 335 337 336 336 336 331 328 328 326 325 322 322 319 314 306 298 297 295 294 294 294 295 294 294 294 302 304 300 298 297 297 297 297 298 299 298 296 295 306 313 312 312 312 312 312 313 313 312 312 312 313 313 313 314 314 313 313 313 313 313 313 313 313 312 312 311 311 311 310 311 311 311 310 309 310 310 310 311 310 309 311
335 334 332 332 330 329 331 333 333 332 333 331 330 328 328 327 325 323 318 314 309 301 295 294 295 294 294 295 296 296 296 297 297 296 295 297 298 299 299 302 299 296 307 314 311 310 310 311 312 312 311 312 312 313 312 312 313 312 312 312 312 312 313 313 313 312 312 312 311 312 312 311 311 310 309 310 310 310 310 310 309 309 308 308 307
335 341 343 339 331 331 331 332 332 333 332 333 333 334 332 334 333 327 323 321 320 318 315 309 299 296 301 298 294 294 295 295 297 296 297 298 298 297 303 311 312 313 313 315 314 311 312 312 310 310 309 309 310 310 309 308 309 310 309 310 310 310 311 311 311 312 311 311 311 311 311 311 310 310 310 309 309 309 309 309 308 308 306 306 306
335 335 338 339 335 333 332 331 331 332 333 333 334 332 333 335 332 330 325 326 325 321 316 310 311 306 298 296 294 294 294 294 296 297 298 298 297 301 311 311 312 313 315 313 313 314 314 312 311 309 308 309 310 309 308 308 309 308 308 309 310 310 310 310 311 311 311 311 311 311 311 310 310 310 309 309 309 309 308 307 306 307 307 306 306
334 334 334 334 333 334 333 332 331 333 335 334 335 333 333 332 334 333 332 329 326 321 315 312 311 311 310 312 305 297 295 294 295 296 297 298 297 307 310 312 312 314 316 314 315 315 313 312 312 310 310 309 308 307 308 308 308 309 312 308 308 308 309 309 310 312 309 309 310 310 309 309 309 309 308 306 306 306 306 307 307 309 309 310 310
334 334 333 333 333 333 330 329 331 336 336 334 331 330 332 331 332 334 332 330 328 323 318 315 319 315 313 311 318 315 307 299 297 298 299 300 305 308 309 311 313 313 315 316 316 315 313 312 310 310 310 309 308 307 308 308 308 308 309 308 309 309 315 314 314 309 308 307 307 307 308 307 306 306 307 306 306 306 307 308 306 306 309 312 308
333 333 332 333 335 331 330 331 332 331 331 331 330 331 331 329 332 331 330 329 328 324 322 318 318 319 314 313 313 316 313 310 311 312 312 311 310 310 310 311 312 313 314 316 319 317 314 313 312 311 311 309 309 308 308 308 308 308 308 308 309 309 311 309 309 308 308 306 307 306 306 305 305 305 306 305 305 305 306 306 306 306 306 307 306
331 330 332 334 333 333 334 334 331 331 334 330 328 329 330 331 330 328 328 327 325 324 323 322 321 321 316 314 313 313 314 315 314 314 314 313 314 313 312 313 313 313 314 316 317 317 315 314 313 312 312 310 310 309 309 309 309 308 308 308 308 308 310 309 308 308 308 307 307 306 306 305 306 306 305 305 305 304 305 305 305 305 305 305 306
331 331 335 331 331 330 332 333 331 331 331 332 330 330 329 330 330 331 327 328 328 328 326 325 323 322 317 313 309 309 317 317 316 316 316 316 316 315 315 315 315 315 317 318 319 319 317 315 314 313 313 312 311 310 310 310 310 310 308 310 310 310 309 309 308 308 308 308 307 307 306 306 306 305 305 305 310 307 305 305 306 305 305 306 306
331 329 329 327 329 331 330 332 330 333 333 333 332 331 332 332 330 329 329 330 330 329 328 327 326 323 314 308 304 302 313 317 317 317 317 317 317 317 317 317 317 317 318 318 320 320 319 317 316 315 314 314 313 312 312 311 311 311 310 310 310 311 311 310 309 308 308 308 307 307 306 307 307 307 307 309 305 304 304 304 304 304 304 305 305
331 329 329 331 329 329 330 330 331 327 327 329 329 335 335 331 328 328 330 330 330 330 328 327 325 322 318 309 308 304 312 315 320 317 317 317 317 318 318 318 318 319 320 321 323 322 321 319 317 316 316 315 316 314 313 312 312 312 311 311 311 311 311 310 310 309 308 307 307 308 307 308 309 307 306 307 305 305 304 304 304 304 304 304 304
329 331 331 331 331 331 331 329 328 327 327 330 332 330 330 329 328 328 327 327 328 329 328 327 324 322 319 313 308 307 312 314 316 316 317 318 318 318 319 320 321 322 323 324 323 323 322 320 319 317 317 317 317 317 316 315 314 313 313 312 311 312 311 310 310 310 309 308 307 308 307 308 308 307 308 308 305 305 304 304 305 304 304 303 303
327 328 327 326 327 325 327 327 326 325 328 328 325 325 330 328 328 327 326 327 327 327 326 326 325 323 319 316 313 312 313 314 316 316 317 317 318 320 321 322 323 323 324 324 321 321 322 321 320 318 317 317 317 317 316 315 315 314 314 313 312 312 311 311 311 311 310 309 308 308 307 307 306 307 306 307 306 306 305 305 305 307 305 304 304
329 327 327 325 324 323 324 323 327 325 325 323 323 323 323 323 324 324 325 326 327 327 327 327 325 323 321 319 317 316 315 315 315 316 317 317 318 319 320 322 323 323 324 324 322 321 322 321 321 320 319 318 317 317 317 316 315 315 315 315 314 314 313 313 312 311 310 310 309 308 308 307 306 307 310 306 306 306 306 305 305 306 306 305 305
327 328 326 327 325 325 326 326 326 326 325 324 322 323 321 321 321 323 324 327 324 324 325 326 325 323 322 320 319 318 317 317 317 317 318 318 319 320 321 322 322 323 324 324 322 321 321 321 320 320 320 319 318 317 317 316 315 315 315 315 315 314 313 312 311 312 311 311 311 308 308 308 307 307 311 310 307 307 307 306 306 306 306 306 305
326 327 326 327 327 327 327 327 326 328 324 323 323 325 323 323 322 322 322 322 322 323 323 322 322 322 321 320 320 319 318 319 318 319 319 320 320 321 321 322 322 324 324 323 323 322 321 321 321 320 320 319 319 318 317 316 315 315 315 315 315 315 312 306 311 312 312 311 311 309 309 309 307 307 307 308 307 306 306 306 307 307 306 306 306
326 327 327 327 328 328 328 328 328 326 325 326 325 325 324 323 322 322 322 322 323 322 322 323 322 322 322 321 320 319 319 319 319 320 320 321 321 321 323 323 323 323 323 322 323 323 323 322 322 321 320 320 319 319 318 317 316 315 315 315 313 307 305 303 308 312 308 312 311 310 309 309 308 308 308 308 308 307 307 307 306 307 307 306 306
328 329 328 327 326 325 326 326 326 326 326 325 325 325 324 323 323 323 323 323 323 324 324 323 322 323 324 322 321 321 320 320 320 320 320 321 322 322 322 322 323 322 322 321 323 322 322 321 322 321 320 320 319 319 318 317 317 316 316 316 308 305 304 302 303 304 307 311 311 310 310 309 309 308 308 308 308 307 307 307 307 307 307 306 305
322 323 323 324 323 322 323 324 325 325 324 324 325 325 324 324 323 323 324 325 325 325 324 324 325 325 325 325 324 324 323 324 324 324 324 323 322 322 322 321 321 321 321 322 323 323 323 320 319 319 319 319 319 318 318 317 317 317 312 309 306 302 300 299 306 300 300 304 312 310 310 310 309 308 308 307 307 307 308 308 307 307 306 306 306
Wind_Speed
11 9 8 8 7 8 8 7 7 6 6 7 7 7 6 6 6 5 3 4 4 6 7 7 8 8 9 8 9 8 8 8 7 7 6 7 6 6 6 5 6 6 5 6 5 5 5 5 5 4 3 3 2 0 0 2 5 5 5 5 6 5 6 6 5 6 2 2 6 5 6 9 6 8 9 7 7 6 6 5 5 5 5 5 5
8 9 8 8 8 9 9 7 7 6 7 7 8 8 7 6 6 5 5 4 4 5 6 7 7 8 8 8 8 9 9 9 9 8 8 7 7 6 7 6 6 7 5 6 6 6 6 6 6 5 3 3 2 2 2 3 4 5 5 6 6 5 4 4 4 7 6 6 6 7 8 8 8 6 9 10 8 7 7 5 4 4 4 5 5
2 6 7 8 9 9 9 8 8 8 9 8 9 8 7 6 5 6 6 5 4 5 6 8 8 9 9 9 9 9 9 9 9 8 9 9 9 8 7 8 8 9 8 8 8 6 6 7 8 5 3 3 3 2 2 3 3 5 5 4 5 5 5 4 6 5 9 7 7 8 8 7 7 9 7 6 7 8 8 6 5 4 4 5 4
8 11 10 10 10 9 9 9 9 9 9 8 9 9 8 7 6 6 6 6 6 5 6 7 7 8 10 10 10 10 9 9 9 9 9 9 9 9 9 9 9 9 9 9 8 7 8 7 7 5 4 5 4 3 2 4 5 5 5 4 5 6 5 5 6 7 7 8 7 8 6 8 5 6 6 6 8 7 6 6 5 5 5 5 5
10 10 11 11 10 9 10 10 10 10 10 8 9 9 8 7 6 6 5 4 3 4 5 6 6 7 9 11 11 11 11 10 10 10 9 9 10 10 10 10 10 10 10 10 9 8 8 8 8 6 5 6 4 4 4 4 5 5 6 5 6 5 5 6 6 6 9 9 7 5 7 4 5 7 9 9 7 6 6 6 6 6 6 5 5
6 6 8 10 10 10 9 9 10 11 10 9 9 8 8 7 6 5 5 6 5 5 6 6 6 7 8 10 10 11 12 11 11 11 11 10 10 10 10 11 11 11 10 10 10 8 8 8 8 7 7 8 7 6 5 6 5 5 5 5 5 4 5 5 6 6 8 9 10 8 6 7 6 6 8 8 10 9 6 5 4 5 7 6 5
5 6 5 10 9 10 10 10 9 9 9 8 6 6 7 7 7 7 6 6 6 6 7 8 7 5 6 8 9 10 11 11 11 11 11 10 10 11 11 11 11 10 10 10 10 9 9 8 8 8 9 8 8 7 7 6 6 6 7 6 5 6 6 6 6 7 7 8 7 7 8 6 9 10 8 6 6 7 10 8 5 4 4 7 7
4 6 8 8 10 10 10 9 8 8 8 7 6 6 6 7 7 7 5 6 6 6 7 7 6 4 4 4 4 6 7 9 10 11 10 10 9 9 10 11 11 11 10 10 9 9 9 9 8 9 9 9 8 8 8 8 6 7 6 5 6 6 6 6 7 8 8 8 10 9 8 8 6 2 6 8 8 5 6 8 11 9 7 4 5
8 11 13 10 8 8 8 7 7 7 7 7 7 7 7 7 7 7 7 7 7 8 7 7 6 6 5 5 4 4 6 8 8 9 10 10 9 10 10 10 10 10 10 10 9 8 8 8 9 8 9 11 14 11 11 9 8 8 7 6 7 7 7 6 7 8 8 9 8 8 9 8 8 9 10 10 13 12 10 6 6 6 7 6 5
14 14 10 7 6 6 6 6 7 7 7 8 8 7 6 6 5 4 5 6 7 6 6 6 6 7 6 6 6 5 6 5 8 14 12 9 9 9 9 10 10 10 10 9 8 8 8 8 8 13 14 15 15 15 15 15 14 11 10 9 9 8 7 8 8 8 9 10 10 10 10 10 11 12 13 12 8 7 9 8 9 8 7 6 4
10 8 7 5 5 5 6 6 6 7 6 4 4 6 6 6 6 5 5 5 6 5 5 6 6 6 6 6 6 6 6 5 9 12 13 13 8 7 8 9 9 10 10 10 9 9 8 8 8 11 13 12 12 16 15 16 17 16 15 16 14 12 9 8 8 9 10 10 9 10 11 12 13 13 13 12 11 12 11 10 10 10 10 10 9
5 4 3 3 4 5 6 6 5 5 4 5 6 5 6 6 5 4 4 5 5 5 6 7 7 6 5 5 6 7 6 8 12 13 14 14 12 8 7 7 7 8 9 10 9 9 9 9 8 7 8 9 9 10 13 17 18 18 17 16 16 18 16 13 11 9 9 10 10 11 12 13 13 12 11 11 11 10 10 11 11 13 11 10 9
4 4 3 4 4 5 5 7 7 6 6 6 5 6 5 5 5 4 6 6 3 4 6 6 7 6 6 7 8 7 7 9 11 13 13 12 12 9 6 7 7 8 8 9 9 9 9 8 8 7 7 12 11 9 9 10 16 18 17 18 18 19 17 19 17 14 12 11 12 12 14 13 12 12 14 15 12 12 11 10 10 11 11 12 10
3 3 3 3 3 3 4 5 7 6 4 3 4 3 2 5 6 4 4 3 2 2 3 4 4 4 5 5 6 6 7 9 12 13 13 13 13 9 6 7 7 8 8 8 7 8 9 9 9 8 8 8 9 9 9 9 9 10 11 10 11 14 17 16 18 19 15 13 13 14 14 11 14 14 15 13 15 15 14 13 12 11 12 12 8
4 3 3 3 3 3 3 3 4 5 3 1 4 5 5 7 7 6 5 4 2 3 4 4 4 4 4 3 2 3 3 3 5 8 10 10 8 5 5 4 5 5 6 7 8 8 9 9 10 10 9 8 9 12 11 10 10 10 10 11 12 11 12 12 12 11 11 11 12 14 12 14 15 13 14 14 18 17 18 19 20 16 9 6 6
5 4 4 4 4 4 4 4 4 7 7 6 6 6 5 6 6 6 6 6 6 5 6 6 8 6 4 3 3 5 5 6 6 4 1 2 5 3 3 3 3 3 5 5 5 6 6 7 8 9 10 13 15 18 16 12 11 11 12 12 11 10 11 13 16 16 14 13 12 13 12 14 15 11 12 14 14 10 7 5 6 7 10 9 9
6 6 5 5 5 5 5 5 4 6 9 11 11 10 8 8 8 6 6 6 6 6 7 7 7 5 3 3 3 4 5 6 7 6 4 4 3 2 2 4 5 7 7 6 6 5 5 5 6 8 3 1 5 9 13 13 11 13 10 9 10 10 11 10 14 18 19 18 17 16 14 12 10 10 16 20 12 11 11 11 12 12 12 11 9
6 6 6 6 6 6 6 6 5 4 4 3 3 3 4 5 7 9 9 9 9 9 8 6 3 2 3 3 3 4 5 6 8 9 9 8 5 3 3 1 1 7 11 10 7 6 6 10 10 7 8 10 14 18 17 15 9 8 12 13 12 11 11 9 6 9 15 15 14 12 8 7 11 17 20 19 18 15 14 16 15 13 12 12 12
5 6 6 6 6 6 5 5 4 4 3 3 2 2 3 3 2 2 3 3 3 2 1 2 2 2 3 3 7 6 5 6 6 7 8 8 6 2 4 5 3 7 9 10 7 4 4 7 12 12 10 13 19 20 17 14 13 13 14 14 13 13 13 12 10 10 9 9 9 9 9 8 7 7 11 20 23 21 15 13 11 13 13 12 11
5 4 3 3 3 3 3 3 3 3 3 2 2 3 2 1 2 2 2 2 2 2 2 1 3 3 3 4 5 5 6 6 7 9 9 10 10 6 4 6 9 11 9 7 5 6 6 5 7 13 15 16 18 18 16 17 14 13 11 11 12 13 12 10 12 12 11 12 12 11 11 8 6 8 10 13 17 16 14 13 13 14 14 13 13
4 4 4 4 3 3 3 3 3 3 3 3 3 2 3 3 3 3 3 3 3 2 2 2 3 4 4 5 5 6 6 6 7 9 10 9 8 7 5 6 6 7 7 6 7 7 8 8 7 10 15 16 17 17 17 16 17 14 10 7 11 16 9 9 13 16 10 10 9 8 8 8 9 10 11 11 12 13 13 12 13 15 13 13 13
6 6 6 5 4 3 3 3 3 4 3 4 4 3 2 2 3 3 2 2 1 1 1 2 3 4 4 5 5 6 7 8 4 6 8 9 7 7 5 6 7 6 7 6 6 7 7 6 6 8 11 15 16 16 17 14 12 8 9 17 22 16 9 11 10 11 10 8 7 6 7 9 10 9 9 11 12 13 13 11 10 9 7 10 15
6 6 5 4 4 4 3 3 3 3 2 2 2 1 0 1 2 2 2 1 1 1 3 3 3 3 4 4 4 5 5 2 2 2 7 6 3 4 8 7 8 6 6 7 7 6 4 4 6 9 12 13 12 14 15 13 4 10 15 18 20 17 13 6 8 8 9 8 7 8 7 8 9 10 10 9 8 7 6 6 6 6 7 6 4
5 5 4 4 4 3 3 3 3 3 3 3 2 1 0 0 0 1 3 3 2 1 2 2 3 3 4 5 4 3 0 3 4 4 3 5 6 4 5 8 9 6 6 6 5 5 5 4 3 7 9 11 11 10 8 5 10 16 17 19 19 14 7 8 9 10 10 9 9 9 8 6 7 8 8 6 7 8 8 8 9 10 10 9 7
4 3 3 2 2 2 2 1 1 2 2 2 2 1 0 0 0 1 3 4 3 3 1 1 2 2 2 3 4 2 1 2 2 4 5 5 5 5 5 6 8 7 5 6 6 6 6 7 7 6 7 8 8 8 5 9 16 17 15 17 13 7 10 11 10 9 9 11 11 9 6 4 4 5 7 8 9 9 10 10 10 9 9 10 7
3 3 1 0 1 2 2 2 2 1 3 1 1 1 1 2 3 2 4 4 3 2 1 2 2 2 2 2 4 3 0 1 1 2 3 3 3 4 4 5 5 4 4 3 5 7 6 3 3 2 2 2 3 3 4 5 9 11 13 12 7 9 9 9 9 11 12 11 10 10 7 6 7 8 9 9 9 9 10 10 10 10 10 9 8
1 1 1 1 1 1 2 2 2 4 3 5 5 5 4 5 4 3 4 4 2 2 1 1 2 2 2 3 3 4 2 2 1 1 1 1 1 1 2 1 1 2 3 4 4 3 5 6 4 5 6 7 7 5 5 4 5 8 3 5 7 8 8 3 4 7 6 7 8 8 8 8 9 10 9 10 10 8 8 10 10 8 8 7 7
1 0 1 1 3 3 0 2 2 5 5 5 5 5 5 4 5 4 3 2 2 1 0 1 2 1 0 1 2 2 2 1 1 2 2 1 2 2 1 1 1 1 1 2 3 3 3 4 4 4 4 4 4 4 4 4 4 4 4 2 1 1 5 10 9 8 8 7 6 5 8 10 10 9 9 9 9 8 8 10 10 10 8 7 6
2 2 3 4 4 3 5 5 3 4 5 5 5 4 3 3 4 3 1 1 2 3 4 3 3 2 1 1 1 1 0 2 1 2 4 6 4 3 2 0 1 1 3 2 3 3 3 4 4 5 4 4 4 4 4 4 4 4 4 4 5 6 6 6 8 9 9 10 9 7 6 6 6 8 9 10 9 8 7 8 8 10 8 6 7
4 6 9 9 6 4 4 4 4 4 4 5 4 4 7 5 4 2 2 2 1 2 3 3 4 4 3 3 3 3 3 2 4 5 5 4 1 4 5 5 4 4 2 3 2 3 3 3 3 3 4 4 4 4 4 3 4 4 4 5 6 7 8 8 9 9 10 11 11 11 11 11 8 8 8 9 8 8 7 8 8 8 9 8 9
7 7 7 7 8 3 2 2 2 4 5 5 5 5 4 4 8 6 4 5 3 2 1 2 4 7 5 3 3 4 5 5 3 4 3 1 4 7 7 8 7 4 2 1 2 2 2 2 3 3 3 3 3 3 3 3 3 4 4 4 5 7 9 9 10 10 10 9 7 6 6 6 6 6 8 7 9 9 7 7 7 7 7 7 8
7 7 6 6 2 4 3 4 6 6 6 6 6 6 5 4 2 2 1 6 3 3 3 2 1 2 4 5 3 2 3 3 2 0 1 3 5 7 8 7 4 3 4 1 3 2 2 3 2 2 2 3 3 3 3 3 3 3 3 4 4 4 5 6 5 7 8 9 9 8 8 8 7 7 6 7 8 7 7 7 7 7 6 5 7
8 6 5 3 3 5 4 3 4 5 6 6 6 6 6 6 6 3 1 1 3 3 3 3 3 3 3 4 6 3 2 2 1 2 4 5 7 8 7 4 3 2 3 4 4 3 2 1 2 2 2 2 3 3 2 2 2 2 2 3 4 3 4 5 6 7 6 7 8 8 8 8 7 6 6 7 7 8 7 7 6 6 7 7 7
5 5 5 6 4 3 4 4 3 3 4 4 4 4 4 4 4 4 6 4 2 2 1 2 5 5 2 4 4 4 4 3 2 3 5 7 6 4 3 0 2 2 3 4 4 3 3 2 2 2 2 2 2 3 3 2 2 3 3 3 4 4 4 4 5 6 6 6 6 6 6 6 6 7 6 6 5 6 6 6 6 7 7 7 7
5 7 13 10 8 8 7 5 3 3 4 5 3 3 3 3 3 4 4 5 5 4 3 2 2 4 3 4 4 5 5 4 4 5 6 6 5 1 2 0 0 0 0 1 3 4 4 4 3 2 2 2 2 2 2 2 3 3 4 4 4 4 4 4 4 4 5 5 5 5 5 6 6 6 7 7 7 7 6 6 6 6 7 7 7
6 5 6 9 8 8 8 7 5 6 6 6 5 4 3 2 3 4 3 2 3 4 2 2 1 1 2 1 5 6 4 4 6 7 7 7 3 3 2 1 1 1 1 2 3 3 4 4 5 5 4 3 3 3 2 2 2 3 3 4 4 4 3 3 4 4 4 4 5 5 5 4 5 5 5 5 6 6 6 7 6 6 7 7 7
5 5 5 6 6 6 5 5 5 6 6 5 3 3 3 3 3 3 4 4 4 3 4 3 2 1 2 2 4 4 4 4 4 6 7 6 3 2 1 0 0 2 2 4 3 3 4 5 5 5 5 5 5 4 3 3 3 3 3 3 3 4 4 3 4 3 5 4 4 4 4 5 5 5 6 6 6 5 6 6 7 6 7 8 7
4 5 5 5 5 3 1 2 5 6 5 3 3 3 3 2 2 2 4 5 5 5 4 4 4 4 4 3 6 3 2 2 5 5 3 3 1 3 3 3 2 2 3 2 4 5 5 4 5 6 5 5 5 5 5 4 4 4 5 4 3 3 4 4 4 4 3 4 5 4 5 5 5 5 6 6 6 6 6 6 7 7 6 7 7
2 5 7 8 6 3 2 3 5 4 4 3 3 3 3 2 1 2 4 4 5 5 5 5 5 4 4 4 4 4 5 1 4 5 5 5 4 4 4 4 4 4 4 5 4 4 5 5 5 5 5 6 6 5 5 5 5 5 5 5 5 4 5 4 5 5 5 5 5 5 6 5 5 5 6 6 6 6 6 6 6 7 7 7 7
3 3 5 8 4 3 3 4 2 2 3 4 5 4 3 3 3 3 3 4 4 4 4 5 5 5 5 5 4 5 5 6 6 5 5 5 5 5 5 5 5 5 5 5 4 5 5 5 5 6 6 6 6 6 5 5 5 5 5 5 5 5 5 5 5 5 5 5 5 5 6 6 6 6 5 6 7 6 6 6 6 6 6 6 6
4 3 4 2 2 1 1 2 3 4 4 4 4 4 5 4 4 3 3 4 4 4 5 6 6 4 6 9 10 10 7 7 6 6 6 6 5 5 6 6 6 6 5 5 5 5 5 6 6 6 6 6 6 7 6 6 6 6 6 5 5 5 5 5 4 5 5 5 6 6 6 6 6 7 6 5 5 6 6 6 6 5 5 5 6
3 2 1 1 1 1 0 1 2 3 4 4 6 6 5 5 4 3 3 3 4 5 5 6 6 5 7 13 13 13 7 5 5 6 6 5 5 6 6 5 5 6 6 6 6 6 6 6 7 7 7 7 7 7 7 7 7 7 7 7 6 6 6 6 6 5 6 6 6 6 6 6 7 7 7 6 6 6 6 6 6 6 6 6 6
1 1 1 2 3 3 2 3 3 2 4 5 6 5 5 5 4 3 3 3 4 5 5 6 6 4 5 9 11 11 7 5 5 6 6 6 6 6 5 6 6 6 7 7 7 7 7 7 7 7 8 8 8 9 9 9 8 8 7 8 8 8 8 7 6 6 6 6 6 6 7 7 7 7 7 7 6 6 6 7 6 7 6 6 6
0 1 1 2 2 2 2 3 3 3 4 5 5 4 4 4 4 4 5 4 4 4 5 5 5 5 5 5 6 6 6 6 6 6 6 6 6 6 6 5 5 6 7 8 6 6 7 7 7 7 7 7 7 7 8 8 8 8 9 8 8 8 8 8 8 8 8 7 6 6 7 7 7 7 7 7 7 7 6 6 7 7 7 7 7
1 1 1 1 1 2 1 1 2 3 4 4 5 4 3 4 5 5 4 4 4 4 4 4 4 5 4 5 6 7 7 6 6 5 6 6 5 5 5 5 5 6 6 6 4 4 6 7 7 7 8 7 7 8 8 8 8 9 9 10 9 9 9 10 10 8 7 8 7 7 7 7 7 7 7 7 7 7 7 7 7 7 7 7 7
4 3 3 3 3 2 2 2 2 2 3 4 4 4 5 3 2 2 3 4 5 5 5 5 5 5 6 6 6 5 6 5 5 6 5 5 5 5 5 5 4 5 6 6 4 5 6 7 7 8 9 8 8 8 8 8 8 8 9 9 10 10 10 9 7 7 8 8 8 7 7 7 7 7 8 7 7 7 7 7 6 7 8 8 8
4 4 3 3 4 3 4 3 3 3 4 4 4 4 5 5 4 4 3 5 5 3 3 5 5 6 6 6 6 6 6 6 6 5 6 6 5 5 5 5 5 5 6 6 4 4 5 7 7 8 9 8 8 9 8 8 8 8 8 9 8 8 7 7 8 8 9 9 9 7 7 7 7 6 8 8 7 7 8 8 7 8 8 8 8
4 4 4 4 4 4 4 3 4 4 3 3 3 4 4 5 5 5 5 5 5 5 5 3 2 2 2 3 3 4 4 4 4 4 5 5 5 5 5 5 5 5 5 6 5 5 5 6 7 8 8 8 9 9 8 8 8 8 8 8 8 9 11 11 7 8 8 8 8 9 9 8 7 7 7 8 8 8 8 8 7 7 8 8 8
5 5 5 5 5 5 4 4 3 3 3 4 4 4 4 4 4 5 5 5 5 5 4 4 5 2 0 2 2 2 2 3 4 5 5 5 5 5 6 6 5 5 5 5 6 6 6 6 7 8 9 9 9 9 9 9 9 8 9 8 11 16 16 16 11 10 12 9 8 8 8 8 8 8 8 8 9 8 9 8 8 8 8 8 8
6 6 6 6 6 6 5 4 4 4 5 4 4 4 4 4 4 5 4 4 5 5 5 5 4 4 5 4 3 1 1 2 3 4 5 4 4 4 5 6 6 5 3 2 4 5 5 5 6 7 8 9 9 9 9 9 9 9 8 10 16 17 17 18 18 17 13 8 10 9 10 9 9 9 8 9 9 9 9 9 9 8 8 8 9
8 8 8 8 7 7 7 6 6 6 6 6 6 6 6 5 5 5 6 6 6 5 5 5 5 5 5 4 4 4 4 4 3 3 4 4 4 3 3 3 3 4 4 4 4 5 5 4 3 4 5 6 7 9 9 9 8 9 13 17 18 18 19 17 15 16 18 13 9 9 9 10 9 10 9 9 8 9 10 10 9 9 8 8 8
Wind_Direction
180 179 180 193 190 194 200 199 206 204 206 203 210 213 208 203 208 214 194 212 198 188 188 192 193 201 205 208 213 212 214 216 214 211 206 213 216 217 224 218 225 240 240 257 255 247 240 239 240 226 211 195 195 149 31 134 170 179 181 178 187 179 163 158 141 133 133 121 130 138 135 132 131 143 139 131 123 117 104 97 102 107 106 102 100
172 171 181 187 187 191 199 199 201 204 209 210 212 212 209 202 201 204 213 215 199 202 202 202 203 206 210 212 212 213 212 214 212 206 208 213 221 217 223 221 223 232 229 237 246 244 245 241 240 233 194 190 163 129 133 125 144 155 169 177 185 185 182 121 151 148 144 159 143 147 149 153 132 157 147 142 138 127 120 122 97 101 115 107 105
177 194 186 186 189 189 193 195 196 200 207 209 212 214 213 208 197 205 214 222 215 212 209 212 212 210 215 215 213 213 210 213 212 208 210 210 214 219 219 218 222 228 228 233 236 235 239 237 237 222 176 167 183 151 134 136 142 153 165 170 172 174 184 166 141 148 155 161 154 156 159 160 155 162 148 140 133 133 128 129 127 117 109 111 107
192 205 202 197 196 189 192 193 194 199 204 208 210 210 210 210 206 210 215 222 229 221 222 221 216 214 215 216 216 218 213 210 212 212 213 212 214 218 220 221 223 224 226 229 230 226 227 229 230 210 189 191 195 163 158 147 152 159 168 177 173 173 171 162 169 143 161 143 177 160 163 149 127 140 137 136 141 138 134 128 122 122 119 112 112
201 198 190 197 200 194 192 188 191 198 204 207 209 206 207 205 199 197 185 207 240 250 230 220 221 209 214 215 215 216 216 212 214 218 218 217 216 218 220 222 224 224 223 223 222 215 214 215 215 202 190 200 199 178 176 164 173 167 174 184 178 172 160 162 163 153 153 159 143 160 161 141 133 155 155 150 145 126 126 138 143 138 123 121 118
230 218 198 196 201 196 191 188 192 196 200 206 209 203 200 195 190 194 197 206 225 240 255 243 226 221 216 216 215 213 211 211 211 215 218 218 217 219 221 221 223 224 225 223 222 213 210 211 211 199 195 201 203 189 184 177 173 181 182 187 178 159 161 160 155 160 157 156 159 158 171 152 150 168 171 158 150 139 135 134 134 145 137 132 132
219 241 221 200 195 196 193 193 191 193 198 201 197 197 201 201 201 208 202 204 211 234 245 246 230 212 227 227 214 208 209 210 211 213 214 213 214 216 220 223 225 226 226 224 219 214 210 210 209 202 202 204 199 188 185 180 181 189 190 186 175 167 165 168 163 159 157 150 162 172 161 172 161 166 175 157 149 152 149 144 149 170 160 151 146
225 246 240 212 190 190 193 192 190 191 197 197 189 185 191 198 203 202 198 205 217 226 234 234 225 206 197 209 227 222 213 213 213 215 214 213 209 212 216 219 223 225 227 222 217 212 210 211 211 207 206 204 199 192 178 183 183 186 193 178 173 170 170 168 164 164 164 166 168 173 178 166 171 128 145 147 150 165 185 166 162 170 170 167 156
202 223 219 195 187 182 182 186 183 182 182 186 192 191 192 198 198 201 203 209 218 221 221 225 237 238 231 220 230 234 226 224 221 218 219 221 218 218 213 215 217 221 224 224 218 214 213 212 212 210 210 208 204 193 189 180 174 185 191 183 180 178 172 173 173 170 175 175 175 171 166 173 176 161 169 180 185 181 174 165 155 152 151 152 159
204 209 198 174 163 164 155 148 154 154 164 178 182 186 197 203 211 223 224 220 222 224 232 236 236 233 230 232 231 232 231 225 223 223 218 216 220 223 219 216 215 216 218 221 223 218 217 212 213 210 209 210 210 204 195 190 187 182 181 184 181 181 179 176 177 182 179 183 184 175 179 182 180 184 184 189 176 144 156 162 157 159 153 157 148
194 186 184 166 150 144 133 144 154 167 171 159 163 184 205 205 208 215 230 239 243 247 245 243 241 239 236 234 235 234 235 225 223 217 212 212 210 218 218 218 212 210 212 212 215 218 221 218 217 216 213 212 212 210 200 195 196 195 187 186 182 177 178 179 191 185 186 192 187 184 187 188 192 187 190 178 179 173 171 168 162 161 171 164 175
177 183 163 142 153 155 146 152 168 199 196 175 185 202 197 202 208 212 232 245 249 247 250 246 243 243 244 247 246 246 241 237 229 224 218 215 212 210 211 216 218 219 216 213 215 214 215 216 217 216 215 212 210 212 209 201 200 200 196 195 194 188 179 178 182 188 193 193 191 196 191 197 193 188 184 178 181 174 175 170 171 172 173 182 175
166 174 176 176 174 169 165 164 175 187 210 230 203 179 206 222 212 198 219 231 234 231 233 240 245 244 243 247 249 247 251 248 244 243 239 230 223 218 219 214 212 223 223 218 214 211 211 213 217 215 217 214 208 208 205 207 205 202 201 200 204 201 197 196 186 184 187 193 196 197 201 196 191 196 189 185 173 173 172 178 181 183 183 183 183
164 175 168 171 168 175 184 183 175 177 186 234 272 272 220 226 230 214 201 208 230 259 258 236 238 239 236 238 247 253 251 248 240 238 240 239 233 223 226 220 220 219 222 225 222 216 210 210 211 216 215 213 210 207 202 203 202 206 207 201 207 214 206 203 203 199 190 194 197 205 207 192 198 196 192 171 172 179 179 185 177 181 189 194 174
166 166 168 148 135 143 159 179 134 91 72 320 305 280 288 295 291 291 295 290 291 280 284 296 279 259 261 258 270 273 261 291 292 261 253 256 264 245 243 248 245 239 234 226 222 221 219 214 212 214 212 213 212 201 199 200 199 203 203 203 205 208 208 209 207 207 205 208 207 212 203 200 205 194 182 182 185 185 183 181 182 184 164 108 117
183 181 174 168 170 180 189 198 155 138 158 168 189 215 235 258 277 293 305 309 313 314 302 277 267 265 267 281 289 285 284 302 300 318 320 178 193 185 208 236 263 282 284 272 251 240 229 223 213 211 207 213 218 206 201 197 197 202 204 209 210 210 215 214 210 207 207 207 210 212 210 204 203 180 178 188 191 176 152 106 121 133 148 159 165
184 193 195 185 189 192 196 206 207 170 165 174 185 179 163 178 192 204 210 227 231 223 228 231 236 248 276 273 275 278 284 290 282 263 240 218 201 198 132 77 28 350 317 300 286 266 246 228 224 232 239 14 333 284 240 208 207 204 205 217 221 218 219 219 216 216 217 217 219 221 216 208 176 157 189 195 175 157 147 161 175 164 163 171 171
192 191 198 193 192 192 195 192 190 183 174 181 178 173 162 172 176 184 188 197 201 202 208 220 230 224 230 247 232 257 270 272 266 266 265 254 246 236 89 30 209 258 267 261 250 248 244 236 227 205 182 211 216 223 223 218 208 197 210 217 220 224 229 222 215 225 229 230 231 233 225 187 192 200 191 183 164 163 169 186 182 165 175 173 171
192 191 195 188 182 182 179 174 173 167 171 175 163 172 192 204 208 195 211 202 222 222 214 238 263 264 252 249 276 274 268 266 253 248 252 250 243 228 171 216 232 253 251 255 254 252 257 254 240 218 201 211 220 225 222 210 215 213 213 212 213 215 223 216 212 216 219 228 237 237 236 210 201 186 178 180 175 178 184 182 160 178 180 178 167
195 185 165 160 160 160 155 155 150 153 162 159 164 194 199 203 223 207 215 199 225 249 259 238 239 257 259 261 261 258 259 263 260 251 245 242 236 237 206 184 200 219 232 240 255 255 251 250 236 221 214 215 220 224 223 212 217 220 215 207 217 225 224 215 219 215 218 213 219 215 218 205 189 172 176 185 192 188 187 182 178 181 180 175 173
134 126 115 110 107 109 112 125 130 141 151 162 176 176 179 192 184 174 186 192 196 211 219 225 230 246 251 247 246 255 247 258 268 261 260 254 239 218 228 218 218 219 221 224 226 237 239 235 236 226 221 226 230 233 233 226 222 226 224 215 216 229 213 204 221 219 220 221 219 201 190 186 195 192 193 193 183 191 194 190 185 186 175 176 174
121 120 120 122 123 120 116 101 117 144 150 138 150 159 167 148 133 132 118 120 144 206 231 233 225 247 255 257 253 256 257 253 268 272 277 281 277 233 235 236 227 229 243 240 236 243 244 244 242 247 242 238 241 240 242 243 251 258 231 220 223 215 179 206 205 206 210 215 207 191 185 186 191 190 191 190 194 198 197 187 183 180 182 190 178
129 129 131 131 137 145 158 163 150 134 150 154 133 157 284 116 106 103 102 85 54 356 329 318 299 279 268 259 257 257 263 294 7 25 40 25 358 256 256 272 279 262 257 261 259 256 252 254 258 258 249 243 236 246 254 255 258 225 235 245 237 214 199 180 189 189 200 203 198 201 190 183 183 187 182 182 168 145 116 119 120 117 105 91 71
132 133 137 144 144 161 181 187 166 179 168 167 161 175 161 92 92 126 113 104 89 24 330 308 300 297 297 297 287 273 24 84 54 70 63 41 20 352 307 284 291 287 293 289 301 295 297 300 340 355 329 303 290 277 276 234 232 245 227 233 245 239 198 191 184 190 191 194 197 197 191 189 179 175 171 148 136 118 108 106 106 107 106 95 86
119 123 136 154 144 200 234 219 194 194 220 194 215 206 130 71 250 11 87 75 79 75 36 31 25 335 338 327 316 304 72 75 72 79 88 71 49 31 2 340 329 336 314 304 320 319 317 314 310 299 295 293 286 276 251 205 225 240 238 233 227 201 205 201 192 179 190 197 197 191 175 156 134 112 109 118 114 113 110 105 103 100 96 102 106
112 127 113 147 187 227 264 310 338 275 255 247 77 90 187 187 143 78 77 85 79 79 38 69 63 54 37 9 8 347 30 142 124 98 85 76 53 45 56 39 19 15 343 313 312 322 332 342 357 314 278 278 264 276 271 264 258 252 243 240 224 219 208 208 192 191 198 196 185 175 153 124 117 118 116 116 116 124 128 126 126 125 124 124 116
94 62 63 44 41 142 198 260 301 25 29 66 64 49 46 80 87 73 72 72 58 47 35 78 78 50 29 10 354 340 38 56 69 101 111 34 15 41 15 50 71 3 341 333 336 348 25 35 38 47 54 39 39 38 27 320 294 283 295 226 226 223 221 216 212 220 225 178 161 142 139 133 125 124 128 125 120 118 117 121 114 114 115 116 117
78 18 350 345 344 337 350 285 49 81 48 34 45 44 46 73 85 77 76 86 97 121 203 140 116 123 8 331 333 326 2 9 5 336 315 240 212 218 232 279 28 1 3 1 3 14 20 12 9 12 25 29 24 26 21 22 0 350 359 4 29 112 107 95 78 68 64 53 48 81 120 134 133 127 120 113 113 118 122 120 125 127 133 130 116
38 3 344 347 319 348 26 23 59 96 93 65 53 36 3 16 103 109 67 249 224 200 186 170 146 168 188 206 232 274 269 281 290 347 291 290 267 208 222 214 112 84 56 44 48 24 18 20 20 25 32 46 43 31 32 37 39 19 30 37 52 62 66 90 101 95 97 93 86 67 38 44 88 110 115 115 118 120 123 121 125 127 130 138 140
23 8 5 352 354 29 33 56 75 105 119 128 116 72 46 31 357 156 160 166 360 329 266 192 172 166 181 200 195 212 233 266 317 322 313 303 110 94 114 110 120 118 101 85 93 74 48 50 34 33 34 37 47 47 48 49 55 50 46 65 75 82 91 96 101 105 102 109 119 126 136 142 144 145 138 131 127 120 121 125 134 141 148 160 155
15 3 10 342 329 343 83 98 113 136 145 148 151 142 142 48 19 34 124 166 182 206 218 164 175 189 194 189 195 234 258 285 289 304 312 105 105 118 122 124 115 110 18 62 71 57 59 59 43 41 51 47 59 57 59 66 80 84 72 70 86 105 113 119 131 136 135 135 127 102 84 78 85 95 112 120 129 137 148 152 146 157 162 156 144
163 176 167 186 206 270 266 184 172 165 174 173 168 171 167 149 107 351 165 152 178 223 220 203 196 230 248 261 243 189 234 240 237 282 252 93 121 130 138 140 130 43 328 269 108 86 61 80 67 55 56 73 75 70 53 57 50 60 79 88 78 73 95 102 103 110 113 116 121 127 126 123 126 131 133 141 143 148 148 146 148 143 137 138 148
165 172 183 198 195 188 198 222 206 189 180 183 189 186 178 172 178 169 262 199 168 177 197 185 183 204 223 246 264 248 174 164 141 163 144 137 150 157 138 97 54 354 61 74 110 114 98 62 66 63 66 78 71 77 77 71 82 76 66 82 93 84 78 89 99 106 115 122 128 137 146 145 149 150 149 148 151 151 152 149 146 142 144 145 148
158 148 166 163 186 256 285 275 235 229 218 212 209 205 211 204 216 182 157 168 229 283 335 226 200 180 183 211 169 137 123 119 121 155 160 162 159 126 101 357 303 327 143 142 135 132 133 105 83 67 72 89 93 98 97 81 70 81 81 81 84 95 102 108 113 117 122 130 131 132 136 142 146 148 146 141 142 140 147 149 144 144 148 150 148
161 176 173 170 178 189 204 224 255 262 236 218 216 213 219 215 201 195 191 187 191 189 176 192 196 216 202 174 170 138 126 127 146 166 166 146 135 320 340 50 10 338 312 151 144 150 150 142 136 122 98 104 101 104 103 93 98 97 105 108 101 105 116 112 113 118 123 124 123 131 139 147 154 151 153 153 150 149 145 142 147 145 145 144 143
164 180 196 189 190 192 197 196 211 230 226 216 202 195 200 187 184 205 190 181 186 175 166 224 219 195 180 129 152 126 122 143 154 157 154 146 119 68 141 232 291 285 237 224 179 170 156 157 157 155 141 134 133 126 127 116 105 104 111 125 134 131 119 118 116 115 119 124 140 139 136 134 140 135 120 128 146 146 144 146 145 147 146 147 146
176 180 201 218 220 216 198 182 210 238 240 225 205 196 195 200 194 194 166 178 193 187 168 169 172 201 204 161 136 107 141 142 150 142 147 150 133 98 115 93 280 301 244 218 216 182 170 176 163 164 157 154 159 157 150 140 129 127 123 120 129 135 131 128 130 127 131 129 129 130 131 134 132 142 145 145 143 141 149 150 150 151 150 149 148
187 195 199 220 229 233 201 194 231 248 248 236 231 227 232 232 226 172 162 179 187 174 171 198 213 199 191 210 184 165 127 110 86 67 81 121 178 216 221 236 248 262 287 242 213 203 192 184 173 168 172 162 162 164 159 155 153 148 144 140 147 155 152 138 131 131 138 134 141 142 138 137 140 146 147 149 154 156 158 158 158 154 151 157 158
220 226 222 209 207 200 198 217 236 249 265 258 245 236 246 240 202 144 170 183 185 183 187 195 212 213 191 168 173 164 143 184 197 208 206 212 214 217 223 242 255 265 266 264 231 203 193 188 189 177 169 170 168 168 168 166 160 161 156 152 155 170 171 158 150 157 158 161 162 155 149 150 151 153 151 152 161 162 161 159 164 160 162 171 172
215 222 212 199 189 193 194 216 249 300 287 269 259 252 244 243 224 207 190 181 194 195 190 204 220 203 161 157 184 182 183 200 215 216 215 219 219 216 219 239 247 252 263 273 250 213 198 196 187 186 182 175 172 173 172 170 169 167 163 170 173 182 189 181 175 169 177 174 169 168 160 164 164 155 155 165 170 168 166 169 167 171 172 166 171
219 217 211 185 124 134 229 242 264 256 263 264 263 253 240 235 229 218 208 202 196 200 208 219 226 196 172 188 194 195 187 197 206 213 218 222 224 224 226 233 244 257 256 253 252 233 209 196 194 193 189 184 179 175 176 175 171 168 173 179 181 188 187 189 183 182 181 178 178 174 174 167 168 165 175 183 171 170 178 168 170 175 178 172 170
219 213 158 97 96 111 155 281 244 252 244 242 247 244 244 242 235 218 213 214 213 209 219 230 234 208 188 188 192 200 206 212 201 212 221 226 232 237 235 238 239 247 255 250 234 223 215 204 198 193 192 188 184 183 180 181 179 177 177 181 185 188 189 195 191 188 183 183 183 183 178 175 173 181 177 168 174 174 175 177 183 182 182 182 181
266 242 173 157 152 180 198 232 251 265 267 256 250 250 241 239 245 237 235 232 225 216 217 226 233 201 199 196 196 194 214 216 209 211 214 219 227 240 243 243 243 244 248 252 240 217 206 200 199 198 195 193 188 186 186 187 182 183 182 184 188 191 194 195 195 193 184 179 183 187 182 179 179 180 183 181 177 175 181 182 183 186 191 186 188
323 264 242 199 182 178 222 252 273 281 281 279 282 276 270 270 268 258 247 249 243 233 226 223 207 202 206 188 187 196 219 216 219 215 214 216 221 231 239 241 244 253 256 261 248 208 198 198 201 203 202 200 195 191 189 185 181 182 185 185 191 194 196 197 199 195 187 182 180 182 185 186 183 180 183 186 177 180 184 185 186 189 189 195 189
26 44 43 45 76 130 165 297 307 307 300 306 310 303 283 267 264 271 271 260 259 259 256 228 205 197 193 194 199 209 216 219 223 227 225 223 228 239 245 250 243 245 254 262 245 203 203 203 200 197 203 206 201 197 194 189 188 187 183 183 186 194 200 201 201 191 182 184 184 183 186 188 188 184 188 186 184 186 189 192 192 191 193 196 194
15 24 21 16 2 357 358 348 338 323 321 325 326 328 338 350 342 329 297 276 261 252 247 232 213 203 199 204 207 214 218 220 231 236 243 238 239 247 256 261 258 250 253 260 237 202 205 205 204 202 204 206 202 202 201 198 195 194 188 189 192 197 200 199 183 172 184 189 189 186 187 189 194 192 193 188 191 191 196 194 193 196 197 199 201
30 28 26 21 17 356 359 340 336 339 352 347 351 349 345 348 355 353 352 353 349 317 269 230 214 216 209 205 205 213 209 211 226 233 239 245 247 250 257 261 265 259 263 271 262 226 212 204 208 212 210 208 204 202 204 203 200 198 195 195 201 200 196 184 179 187 190 192 189 183 185 188 194 196 202 197 193 197 201 202 197 199 201 201 202
29 32 27 22 24 29 8 359 353 354 356 354 347 346 349 350 351 352 349 349 1 5 4 354 300 265 227 222 218 219 214 223 234 243 253 255 255 256 260 262 259 267 275 281 277 251 222 217 210 211 215 210 205 205 205 203 203 200 199 200 200 201 193 183 186 191 191 188 190 191 188 191 195 195 197 199 200 197 199 209 205 205 201 202 200
47 46 42 37 34 28 20 14 8 6 353 349 352 357 357 353 348 346 343 343 346 355 9 13 6 6 181 220 206 224 228 235 239 248 247 253 255 262 265 270 268 264 272 281 286 278 260 237 223 214 211 209 208 206 202 199 201 203 203 205 205 201 193 190 191 196 190 187 192 191 191 194 196 199 199 201 205 201 203 203 198 200 201 200 198
37 37 38 36 32 23 17 23 30 22 21 16 20 17 10 6 4 360 359 358 4 6 0 11 20 25 31 30 27 5 309 275 273 270 277 274 274 270 273 277 285 296 307 322 325 308 284 262 247 233 217 212 211 207 202 199 202 206 207 208 205 199 197 195 197 195 188 192 190 190 192 196 198 201 202 203 204 202 204 203 200 197 194 194 199
37 39 37 35 31 26 26 26 24 26 25 23 25 22 20 15 10 9 11 14 11 10 13 14 10 17 25 23 23 28 23 14 13 17 12 4 352 338 331 326 325 345 349 347 344 339 345 335 275 253 256 248 225 212 204 203 204 209 210 207 202 200 200 196 200 202 195 193 190 189 190 195 197 202 204 205 203 203 204 202 201 196 195 195 197